Weather reports worldwide

Advertisment
Eindhoven, Netherlands (6370): temperature & dewpoint: 22.10.2020 16:00:00 - 28.10.2020 16:00:00 (CET)Eindhoven, Netherlands (6370): temperature 5cm: 22.10.2020 16:00:00 - 28.10.2020 16:00:00 (CET)Eindhoven, Netherlands (6370): wind speed & gusts: 22.10.2020 16:00:00 - 28.10.2020 16:00:00 (CET)Eindhoven, Netherlands (6370): wind direction: 22.10.2020 16:00:00 - 28.10.2020 16:00:00 (CET)Eindhoven, Netherlands (6370): reduced air pressure: 22.10.2020 16:00:00 - 28.10.2020 16:00:00 (CET)Eindhoven, Netherlands (6370): visibility: 22.10.2020 16:00:00 - 28.10.2020 16:00:00 (CET)Eindhoven, Netherlands (6370): precipitation: 22.10.2020 16:00:00 - 28.10.2020 16:00:00 (CET)
Date & Time tt [°C] td [°C] tt 5cm [°C] ff [km/h] ff [kn] fx [km/h] fx [kn] dd ppp [hPa] vv [km] rr [mm]
28.10.2020 16:00:00 13,0 8,0 11,9 29 16 - - SSW 1007,0 10 -
28.10.2020 15:00:00 13,4 7,2 13,1 26 14 54 29 SSW 1006,8 10 0,0
28.10.2020 14:00:00 13,6 8,1 13,6 31 17 47 25 SSW 1007,1 10 0,0
28.10.2020 13:00:00 14,1 7,7 13,5 31 17 47 25 SW 1007,4 10 0,0
28.10.2020 12:00:00 13,3 8,0 13,1 28 15 50 27 SW 1007,5 10 0,0
28.10.2020 11:00:00 12,4 8,9 12,2 29 16 43 23 SSW 1007,4 10 0,0
28.10.2020 10:00:00 11,9 9,4 11,9 22 12 36 19 SSW 1006,9 10 0,0
28.10.2020 09:00:00 10,5 9,5 9,8 13 7 25 14 S 1006,5 10 0,2
28.10.2020 08:00:00 9,7 8,8 9,0 11 6 18 10 S 1006,4 10 0,0
28.10.2020 07:00:00 10,1 9,2 9,7 16 9 29 16 SSW 1005,1 10 0,1
28.10.2020 06:00:00 10,5 10,0 10,1 16 9 22 12 SSW 1005,0 10 0,0
28.10.2020 05:00:00 9,8 9,5 9,1 15 8 22 12 S 1004,3 10 0,0
28.10.2020 04:00:00 9,5 9,3 8,8 13 7 22 12 S 1003,9 10 0,0
28.10.2020 03:00:00 9,8 9,0 9,0 13 7 18 10 SSW 1004,0 10 0,0
28.10.2020 02:00:00 10,2 9,6 9,7 16 9 29 16 SSW 1003,8 10 0,0
28.10.2020 01:00:00 11,0 10,1 10,5 21 11 36 19 SSW 1002,7 10 0,0
28.10.2020 00:00:00 11,8 10,7 11,3 26 14 43 23 SSW 1001,8 10 0,3
27.10.2020 23:00:00 11,3 10,5 10,9 24 13 43 23 S 1001,3 10 0,5
27.10.2020 22:00:00 10,5 9,9 10,3 24 13 47 25 S 1001,1 6 1,7
27.10.2020 21:00:00 11,4 8,6 11,1 28 15 47 25 S 1000,8 10 0,0
27.10.2020 20:00:00 11,3 7,8 10,8 22 12 43 23 S 1001,1 10 0,0
27.10.2020 19:00:00 10,3 8,4 9,9 24 13 43 23 S 1001,6 10 0,0
27.10.2020 18:00:00 11,4 6,8 11,1 24 13 43 23 S 1002,3 10 0,0
27.10.2020 17:00:00 11,3 6,6 11,0 24 13 47 25 S 1002,5 10 0,0
27.10.2020 16:00:00 11,6 6,8 11,4 24 13 40 21 S 1003,1 10 0,0
27.10.2020 15:00:00 11,6 7,0 11,4 22 12 40 21 S 1003,7 10 0,0
27.10.2020 14:00:00 11,8 7,3 11,9 26 14 36 19 SSW 1004,1 10 0,0
27.10.2020 13:00:00 11,0 7,0 11,0 22 12 43 23 SSW 1004,8 10 0,0
27.10.2020 12:00:00 10,7 6,9 10,6 26 14 43 23 SSW 1005,0 10 0,0
27.10.2020 11:00:00 10,5 7,0 10,5 26 14 43 23 SSW 1005,1 10 0,0
27.10.2020 10:00:00 10,5 7,4 10,4 22 12 36 19 SSW 1004,8 10 0,0
27.10.2020 09:00:00 9,3 7,1 8,7 18 10 32 18 S 1004,8 10 0,0
27.10.2020 08:00:00 8,1 6,7 7,3 16 9 25 14 S 1004,7 10 0,0
27.10.2020 07:00:00 7,6 6,6 6,9 16 9 25 14 SSW 1004,3 10 0,0
27.10.2020 06:00:00 7,9 6,7 7,2 16 9 22 12 SSW 1003,9 10 0,0
27.10.2020 05:00:00 7,8 6,8 7,1 15 8 22 12 S 1003,5 10 0,0
27.10.2020 04:00:00 7,8 6,9 7,2 15 8 25 14 S 1003,0 10 0,0
27.10.2020 03:00:00 8,3 7,1 7,6 15 8 22 12 S 1003,0 10 0,0
27.10.2020 02:00:00 8,6 6,9 7,8 15 8 25 14 S 1002,9 10 0,0
27.10.2020 01:00:00 9,0 7,1 8,4 15 8 32 18 SSW 1002,8 10 0,0
27.10.2020 00:00:00 10,3 7,3 9,6 21 11 32 18 SSW 1002,6 10 0,0
26.10.2020 23:00:00 10,5 7,2 10,1 18 10 29 16 SSW 1002,3 10 0,0
26.10.2020 22:00:00 10,3 7,1 9,6 21 11 36 19 SSW 1002,3 10 0,0
26.10.2020 21:00:00 10,5 7,1 9,9 21 11 32 18 SSW 1001,9 10 0,0
26.10.2020 20:00:00 10,6 7,0 10,1 16 9 25 14 S 1001,7 10 0,0
26.10.2020 19:00:00 10,7 6,6 9,8 15 8 25 14 S 1001,6 10 0,0
26.10.2020 18:00:00 10,7 6,6 9,7 16 9 29 16 S 1001,1 10 0,0
26.10.2020 17:00:00 11,7 6,7 11,1 13 7 22 12 S 1001,2 10 0,0
26.10.2020 16:00:00 11,7 7,5 11,5 15 8 25 14 S 1001,0 10 0,0
26.10.2020 15:00:00 12,3 7,1 12,3 13 7 29 16 SSW 1000,8 10 0,0
26.10.2020 14:00:00 12,0 6,6 11,9 21 11 40 21 SSW 1000,5 10 0,0
26.10.2020 13:00:00 12,5 7,3 11,7 22 12 40 21 SSW 1000,6 10 0,0
26.10.2020 12:00:00 11,1 6,9 11,3 22 12 47 25 SSW 1001,0 10 0,0
26.10.2020 11:00:00 10,6 6,4 10,8 24 13 40 21 SSW 1001,0 10 0,0
26.10.2020 10:00:00 10,4 7,3 10,8 21 11 32 18 SSW 1001,1 10 0,0
26.10.2020 09:00:00 9,0 6,9 8,4 18 10 32 18 SSW 1001,2 10 0,0
26.10.2020 08:00:00 8,9 7,3 8,3 21 11 32 18 SSW 1001,3 10 0,0
26.10.2020 07:00:00 9,0 7,9 8,2 13 7 18 10 SSW 1000,6 10 0,0
26.10.2020 06:00:00 8,7 8,0 8,1 13 7 18 10 S 1000,1 10 0,0
26.10.2020 05:00:00 9,0 8,1 8,4 13 7 22 12 S 1000,2 10 0,0
26.10.2020 04:00:00 9,1 8,1 8,5 13 7 18 10 S 1000,4 10 0,0
26.10.2020 03:00:00 9,7 8,9 9,2 13 7 22 12 S 1000,0 10 0,0
26.10.2020 02:00:00 9,8 9,2 9,1 13 7 18 10 S 1000,1 10 0,0
26.10.2020 01:00:00 9,8 9,0 9,2 13 7 22 12 S 1000,4 10 0,1
26.10.2020 00:00:00 10,4 9,3 10,1 15 8 22 12 S 1000,9 10 0,2
25.10.2020 23:00:00 10,0 9,0 9,5 13 7 22 12 S 1000,9 10 0,0
25.10.2020 22:00:00 9,6 8,8 9,0 11 6 14 8 SSE 1001,0 10 0,0
25.10.2020 21:00:00 9,7 8,7 9,0 11 6 18 10 S 1001,1 10 0,0
25.10.2020 20:00:00 10,4 9,0 9,5 13 7 22 12 S 1001,5 10 0,0
25.10.2020 19:00:00 11,1 9,3 10,2 13 7 22 12 S 1001,7 10 0,0
25.10.2020 18:00:00 11,3 9,8 10,6 11 6 18 10 S 1001,7 10 0,0
25.10.2020 17:00:00 11,5 9,8 11,0 11 6 22 12 SSW 1001,6 10 0,0
25.10.2020 16:00:00 11,9 9,9 11,5 15 8 29 16 S 1000,8 10 0,0
25.10.2020 15:00:00 12,2 10,8 12,1 15 8 29 16 S 1000,9 10 0,0
25.10.2020 14:00:00 12,5 11,3 12,5 21 11 29 16 SSW 1001,8 10 0,1
25.10.2020 13:00:00 12,4 11,5 12,4 15 8 25 14 S 1001,8 10 0,7
25.10.2020 12:00:00 12,6 11,4 12,4 16 9 29 16 S 1002,5 10 0,2
25.10.2020 11:00:00 12,7 11,6 12,7 15 8 29 16 S 1002,3 10 0,0
25.10.2020 10:00:00 12,4 11,7 12,1 13 7 22 12 SSW 1001,8 10 0,1
25.10.2020 09:00:00 11,2 10,6 11,0 18 10 32 18 SSW 1002,2 10 1,5
25.10.2020 08:00:00 10,8 9,9 10,6 18 10 29 16 SSW 1001,7 10 1,9
25.10.2020 07:00:00 11,5 9,9 11,3 26 14 47 25 SW 1002,3 10 1,1
25.10.2020 06:00:00 14,1 10,8 13,5 26 14 43 23 S 1001,5 10 0,0
25.10.2020 05:00:00 15,0 10,5 14,6 24 13 40 21 S 1001,4 10 0,0
25.10.2020 04:00:00 15,5 10,5 15,0 24 13 43 23 S 1001,8 10 0,0
25.10.2020 03:00:00 15,6 10,6 15,2 28 15 47 25 S 1002,7 10 0,0
25.10.2020 02:00:00 15,5 11,0 15,2 29 16 50 27 S 1003,2 10 0,0
25.10.2020 01:00:00 - - - - - - - - - - -
25.10.2020 00:00:00 15,9 11,4 15,5 34 18 54 29 S 1004,5 10 0,0
24.10.2020 23:00:00 15,8 11,7 15,4 29 16 50 27 S 1005,0 10 0,0
24.10.2020 22:00:00 15,7 11,9 15,3 29 16 43 23 S 1005,4 10 0,0
24.10.2020 21:00:00 15,3 12,0 14,8 26 14 47 25 S 1006,0 10 0,0
24.10.2020 20:00:00 15,2 12,0 14,6 28 15 43 23 S 1006,6 10 0,0
24.10.2020 19:00:00 14,6 11,9 14,1 21 11 43 23 S 1007,6 10 0,0
24.10.2020 18:00:00 14,9 11,8 14,2 24 13 43 23 S 1007,9 10 0,0
24.10.2020 17:00:00 14,7 11,8 14,3 22 12 40 21 S 1008,4 10 0,0
24.10.2020 16:00:00 14,3 12,4 13,9 21 11 43 23 SSW 1009,1 10 0,0
24.10.2020 15:00:00 13,6 12,7 13,5 22 12 36 19 S 1009,8 9 0,0
24.10.2020 14:00:00 15,3 11,5 15,2 24 13 43 23 SSW 1010,2 10 0,0
24.10.2020 13:00:00 15,3 11,2 15,1 24 13 40 21 SSW 1010,8 10 0,0
24.10.2020 12:00:00 13,8 12,6 13,4 21 11 36 19 SSW 1011,3 10 0,0
24.10.2020 11:00:00 12,7 12,2 12,7 18 10 29 16 SSW 1011,6 3,8 0,2
24.10.2020 10:00:00 12,3 11,9 12,3 21 11 32 18 SSW 1011,7 4,0 0,2
24.10.2020 09:00:00 12,2 11,5 12,0 18 10 29 16 SSW 1011,6 4,3 0,0
24.10.2020 08:00:00 12,2 11,0 12,1 21 11 29 16 SSW 1011,4 10 0,0
24.10.2020 07:00:00 12,6 10,7 12,2 15 8 25 14 S 1011,3 10 0,0
24.10.2020 06:00:00 12,5 10,8 12,2 16 9 25 14 SSW 1011,8 10 0,0
24.10.2020 05:00:00 12,6 10,6 12,2 15 8 22 12 SSW 1011,8 10 0,0
24.10.2020 04:00:00 12,5 10,7 12,1 16 9 22 12 SSW 1011,8 10 0,0
24.10.2020 03:00:00 12,2 10,5 11,7 18 10 25 14 SSW 1011,9 10 0,0
24.10.2020 02:00:00 12,0 10,4 11,2 16 9 25 14 SSW 1011,8 10 0,0
24.10.2020 01:00:00 12,5 10,6 11,8 16 9 25 14 SSW 1011,9 10 0,0
24.10.2020 00:00:00 11,8 10,3 10,9 13 7 22 12 SSW 1011,8 10 0,0
23.10.2020 23:00:00 12,0 10,9 11,1 13 7 18 10 SSW 1011,8 10 0,0
23.10.2020 22:00:00 12,9 11,1 12,3 13 7 22 12 SSW 1011,5 10 0,0
23.10.2020 21:00:00 13,6 11,4 12,7 15 8 22 12 SSW 1010,7 10 0,0
23.10.2020 20:00:00 13,0 11,0 12,0 11 6 18 10 SSW 1010,4 10 0,0
23.10.2020 19:00:00 14,3 12,2 13,3 11 6 14 8 SSW 1010,4 10 0,0
23.10.2020 18:00:00 12,8 11,7 10,8 8 4 14 8 SSW 1010,0 10 0,0
23.10.2020 17:00:00 15,2 12,5 14,5 11 6 22 12 SSW 1009,7 10 0,0
23.10.2020 16:00:00 17,3 13,6 16,9 15 8 25 14 SW 1009,6 10 0,0
23.10.2020 15:00:00 17,1 13,4 17,5 18 10 29 16 SW 1009,3 10 0,0
23.10.2020 14:00:00 16,9 13,8 16,8 16 9 25 14 SSW 1009,6 10 0,0
23.10.2020 13:00:00 16,1 14,3 16,2 16 9 25 14 SW 1010,1 10 0,0
23.10.2020 12:00:00 15,3 14,6 15,2 11 6 18 10 SSW 1010,3 6 0,0
23.10.2020 11:00:00 13,7 13,7 13,9 8 4 14 8 S 1010,8 5 0,0
23.10.2020 10:00:00 12,6 12,6 12,7 5 3 14 8 S 1010,8 2,7 0,0
23.10.2020 09:00:00 11,4 11,4 11,2 4 2 7 4 - 1010,8 0,5 0,0
23.10.2020 08:00:00 10,2 10,2 9,6 5 3 7 4 SSE 1010,7 0,3 0,0
23.10.2020 07:00:00 9,2 9,2 8,0 4 2 7 4 - 1010,6 0,4 0,0
23.10.2020 06:00:00 8,3 8,2 6,2 2 1 11 6 - 1010,8 0,3 0,0
23.10.2020 05:00:00 10,0 10,0 6,4 4 2 7 4 S 1011,0 0,4 0,0
23.10.2020 04:00:00 9,5 9,5 7,2 5 3 7 4 SSE 1011,5 1,6 0,0
23.10.2020 03:00:00 10,7 10,7 8,9 8 4 14 8 S 1012,1 2,4 0,0
23.10.2020 02:00:00 10,9 10,9 7,5 5 3 11 6 S 1012,2 2,7 0,0
23.10.2020 01:00:00 10,5 10,5 6,8 4 2 11 6 SSW 1012,3 0,3 0,0
23.10.2020 00:00:00 11,2 11,2 7,6 4 2 14 8 SSW 1012,3 0,7 0,0
22.10.2020 23:00:00 12,2 12,2 11,2 11 6 14 8 S 1012,3 4,1 0,0
22.10.2020 22:00:00 11,1 11,1 8,4 8 4 14 8 S 1012,2 1,6 0,0
22.10.2020 21:00:00 11,4 11,4 9,0 8 4 14 8 SSW 1012,1 2,9 0,0
22.10.2020 20:00:00 11,6 11,6 9,4 9 5 14 8 SSW 1011,7 6 0,0
22.10.2020 19:00:00 12,8 12,5 11,8 11 6 14 8 SSW 1011,7 10 0,0
22.10.2020 18:00:00 13,6 13,0 13,0 13 7 18 10 SSW 1011,1 10 0,0
22.10.2020 17:00:00 15,3 14,4 15,1 11 6 22 12 SSW 1010,9 10 0,0
22.10.2020 16:00:00 15,7 14,3 15,7 13 7 25 14 SW 1010,8 10 0,0

tt = temperature
td = dewpoint
tt 5cm = temperature 5cm
ff = wind speed
fx = gusts
dd = wind direction
ppp = reduced air pressure
vv = visibility
rr = precipitation

Next stations